Location: ????????
(56.1167°N, 38.6333°E)
Time: 21:49:26
(UTC+00:00)

Cosmos 2082 Rocket - Pass Details

Date: 18 November 2025
Orbit: 834 x 851 km, 71.0° (Epoch: 06 December)

Event Time Altitude Azimuth Distance (km) Brightness Sun altitude
Rises 14:03:47 0° 324° (NW) 3,396 5.5 -7.1°
Reaches altitude 10° 14:06:18 10° 329° (NNW) 2,458 4.7 -7.4°
Maximum altitude 14:11:49 54° 46° (NE) 1,012 2.3 -8.1°
Drops below altitude 10° 14:17:19 10° 124° (SE) 2,446 4.3 -8.9°
Sets 14:19:48 0° 129° (SE) 3,378 5.0 -9.2°
